Location: New Mesquite
(33.1168°N, 96.4336°W)
Time: 10:43:18
(UTC+00:00)

Okean 1 - Pass Details

Date: 12 July 2022
Orbit: 532 x 553 km, 82.5° (Epoch: 14 August)

Event Time Altitude Azimuth Distance (km) Brightness Sun altitude
Rises 07:58:50 0° 8° (N) 2,680 7.9 -31.1°
Reaches altitude 10° 08:01:16 10° 21° (NNE) 1,785 6.8 -30.9°
Enters shadow 08:03:27 22° 51° (NE) 1,188 5.5 -30.7°
